Погода в Баия-Бланка

Аргентина     38°43′29″S   62°15′36″W
темп.,
°C
ветер,
м/с
пор.,
м/с
влажн.,
%
обл.,
%
осадки,
мм/ч
давл.,
гПа
погр.,
м
6 мая, чт
чт600:00+9зюз34500 0.0 102692
03:00+8з23615 0.0 102675
06:00+7з347884 0.0 102698
09:00+8зсз3477100 0.0 1026164
12:00+13з235493 0.0 1026525
15:00+16ююз22380 0.0 1024901
18:00+14вюв22455 0.0 102454
21:00+11всв33545 0.0 102471
7 мая, пт
пт700:00+9св34600 0.0 102485
03:00+9ссв23590 0.0 102463
06:00+8с23575 0.0 102455
09:00+9св23525 0.0 102592
12:00+16св23345 0.0 1025554
15:00+19ссз35304 0.0 10231418
18:00+16с47414 0.0 1022287
21:00+12ссв355596 0.0 1024118
8 мая, сб
сб800:00+10ссв3562100 0.0 1023138
03:00+10ссв31163100 0.0 1023415
06:00+10ссв31268100 0.0 1022417
09:00+11ссв41363100 0.0 1023493
12:00+17с711406 0.0 10231006
15:00+19с7113369 0.0 10201151
18:00+16с51045100 0.0 1020638
21:00+13ссв41258100 0.0 1022542
9 мая, вс
вс900:00+12ссв41267100 0.0 1022472
03:00+13с41267100 0.0 1021513
06:00+12с41169100 0.0 1021429
09:00+13с31069100 0.0 1022419
12:00+17ссз4655100 0.0 1022652
15:00+19сз3347100 0.0 10211319
18:00+16ссз225887 0.0 102132
21:00+14ююз116489 0.0 102311
10 мая, пн
пн1000:00+13ссв11695 0.0 102318
03:00+12юз12730 0.0 102327
06:00+11юз11850 0.0 102328
09:00+12вюв1289100 0.1 102477
12:00+15юв7977100 0.2 1025985
15:00+15юв686497 0.2 1025926
18:00+13юв5763100 0.0 1025857
21:00+13юв4660100 0.0 1027921